Weather History for Anoka County, MN

Change the Weather History Date:

Sunday, April 14, 2013

  Actual Average Record
Temperature  
Mean Temperature 32 °F -  
Max Temperature 37 °F 52 °F 87 °F (2003)
Min Temperature 26 °F 34 °F 21 °F (2008)
Degree Days  
Heating Degree Days 34    
Moisture  
Dew Point 29 °F    
Average Humidity 87    
Maximum Humidity 100    
Minimum Humidity 70    
Precipitation  
Precipitation 0.07 in - - ()
Sea Level Pressure  
Sea Level Pressure 29.75 in    
Wind  
Wind Speed 7 mph (East)    
Max Wind Speed 21 mph    
Max Gust Speed 30 mph    
Visibility 7 miles    
Events Rain , Snow    
Averages and records for this station are not official NWS values.
T = Trace of Precipitation, MM = Missing Value Source: NWS Daily Summary

Daily Weather History Graph

Daily Weather History Graph

Search for Another Location

Airport:

Trip Planner

Search our weather history database for the weather conditions in past years. The results will help you decide how hot, cold, wet, or windy it might be!

Date:

Astronomy

Apr. 14, 2013 Rise Set
Actual Time 6:29 AM CDT 7:57 PM CDT
Civil Twilight 5:58 AM CDT 8:28 PM CDT
Nautical Twilight 5:21 AM CDT 9:05 PM CDT
Astronomical Twilight 4:41 AM CDT 9:45 PM CDT
Moon 8:58 AM CDT (4/14) No Moon Set
Length of Visible Light 14h 29m
Length of Day
13h 28m
Waxing Crescent, 17% of the Moon is Illuminated
Apr 14
Waxing Crescent
Apr 18
First Quarter
Apr 25
Full
May 2
Last Quarter
May 9
New

Hourly Weather History & Observations

Time (CDT) Temp. Windchill Dew Point Humidity Pressure Visibility Wind Dir Wind Speed Gust Speed Precip Events Conditions
12:14 AM 26.6 °F - 24.8 °F 93% 29.95 in 10.0 mi Calm Calm - N/A   Clear
12:34 AM 26.6 °F 21.2 °F 24.8 °F 93% 29.94 in 10.0 mi East 4.6 mph - N/A   Clear
12:54 AM 28.4 °F 24.6 °F 24.8 °F 86% 29.95 in 10.0 mi SE 3.5 mph - N/A   Scattered Clouds
1:14 AM 28.4 °F 24.6 °F 24.8 °F 86% 29.94 in 10.0 mi East 3.5 mph - N/A   Overcast
1:34 AM 28.4 °F 22.2 °F 24.8 °F 86% 29.93 in 10.0 mi ENE 5.8 mph - N/A   Overcast
1:54 AM 28.4 °F 23.3 °F 24.8 °F 86% 29.93 in 10.0 mi ENE 4.6 mph - N/A   Overcast
2:14 AM 30.2 °F 23.4 °F 26.6 °F 86% 29.91 in 10.0 mi ENE 6.9 mph - N/A   Overcast
2:34 AM 28.4 °F 21.2 °F 24.8 °F 86% 29.89 in 10.0 mi ENE 6.9 mph - N/A   Mostly Cloudy
2:54 AM 30.2 °F 24.3 °F 24.8 °F 80% 29.89 in 10.0 mi East 5.8 mph - N/A   Overcast
3:14 AM 30.2 °F 24.3 °F 24.8 °F 80% 29.90 in 10.0 mi East 5.8 mph - N/A   Overcast
3:34 AM 30.2 °F 23.4 °F 24.8 °F 80% 29.89 in 10.0 mi East 6.9 mph - N/A   Overcast
3:54 AM 30.2 °F 22.6 °F 24.8 °F 80% 29.89 in 10.0 mi East 8.1 mph - N/A   Overcast
4:14 AM 30.2 °F 23.4 °F 24.8 °F 80% 29.89 in 10.0 mi East 6.9 mph - N/A   Overcast
4:33 AM 32.0 °F 24.2 °F 24.8 °F 75% 29.89 in 10.0 mi East 9.2 mph - N/A   Overcast
4:54 AM 30.2 °F 21.3 °F 23.0 °F 75% 29.89 in 10.0 mi East 10.4 mph - N/A   Overcast
5:14 AM 32.0 °F 24.2 °F 24.8 °F 75% 29.90 in 10.0 mi East 9.2 mph - N/A Snow Light Snow
5:34 AM 30.2 °F 20.8 °F 24.8 °F 80% 29.89 in 7.0 mi East 11.5 mph - N/A Snow Light Snow
5:54 AM 30.2 °F 21.9 °F 24.8 °F 80% 29.89 in 10.0 mi ENE 9.2 mph - N/A Snow Light Snow
6:13 AM 30.2 °F 21.9 °F 24.8 °F 80% 29.88 in 7.0 mi East 9.2 mph - N/A Snow Light Snow
6:34 AM 30.2 °F 20.8 °F 24.8 °F 80% 29.88 in 4.0 mi East 11.5 mph - N/A Snow Light Snow
6:45 AM 30.2 °F 20.8 °F 26.6 °F 86% 29.87 in 2.0 mi East 11.5 mph - N/A Snow Light Snow
6:54 AM 30.2 °F 21.3 °F 26.6 °F 86% 29.87 in 4.0 mi East 10.4 mph - N/A Snow Light Snow
7:25 AM 30.2 °F 20.8 °F 24.8 °F 80% 29.87 in 10.0 mi East 11.5 mph 17.3 mph N/A   Overcast
7:45 AM 30.2 °F 20.8 °F 24.8 °F 80% 29.87 in 10.0 mi East 11.5 mph - N/A   Overcast
8:45 AM 32.0 °F 23.0 °F 26.6 °F 80% 29.81 in 10.0 mi East 11.5 mph 20.7 mph N/A   Overcast
9:45 AM 33.8 °F 24.8 °F 24.8 °F 70% 29.78 in 3.0 mi East 12.7 mph 21.9 mph N/A Snow Light Snow
10:55 AM 33.8 °F 22.5 °F 28.4 °F 81% 29.73 in 2.0 mi East 19.6 mph 28.8 mph N/A Snow Light Snow
11:50 AM 33.8 °F 22.2 °F 28.4 °F 81% 29.73 in 1.8 mi East 20.7 mph 29.9 mph N/A Snow Light Snow
12:05 PM 33.8 °F 23.2 °F 30.2 °F 87% 29.74 in 0.8 mi East 17.3 mph 28.8 mph N/A Snow Light Snow
12:45 PM 33.8 °F 22.2 °F 30.2 °F 87% 29.71 in 1.0 mi ENE 20.7 mph 28.8 mph N/A Snow Light Snow
1:45 PM 33.8 °F 22.5 °F 32.0 °F 93% 29.65 in 5.0 mi ENE 19.6 mph 25.3 mph N/A Rain Light Rain
2:45 PM 33.8 °F 24.3 °F 32.0 °F 93% 29.63 in 4.0 mi East 13.8 mph 18.4 mph N/A Rain Light Rain
3:45 PM 33.8 °F 25.3 °F 32.0 °F 93% 29.61 in 4.0 mi East 11.5 mph 17.3 mph N/A Rain Light Rain
4:45 PM 33.8 °F 26.4 °F 33.8 °F 100% 29.57 in 3.0 mi East 9.2 mph - N/A Rain Light Rain
5:45 PM 33.8 °F 27.0 °F 33.8 °F 100% 29.54 in 3.0 mi East 8.1 mph - N/A Rain Light Rain
6:45 PM 33.8 °F 27.0 °F 33.8 °F 100% 29.52 in 3.0 mi East 8.1 mph - N/A Rain Light Rain
7:45 PM 35.6 °F 30.7 °F 33.8 °F 93% 29.51 in 10.0 mi East 5.8 mph - N/A   Overcast
8:45 PM 35.6 °F 32.8 °F 33.8 °F 93% 29.51 in 10.0 mi East 3.5 mph - N/A   Overcast
9:14 PM 35.6 °F 31.7 °F 33.8 °F 93% 29.50 in 10.0 mi East 4.6 mph - 0.01 in   Overcast
9:34 PM 35.6 °F 32.8 °F 33.8 °F 93% 29.53 in 10.0 mi East 3.5 mph - 0.01 in   Overcast
9:54 PM 35.6 °F 32.8 °F 33.8 °F 93% 29.52 in 3.0 mi East 3.5 mph - 0.02 in   Overcast
10:13 PM 35.6 °F 32.8 °F 33.8 °F 93% 29.53 in 7.0 mi ESE 3.5 mph - N/A   Overcast
10:34 PM 35.6 °F 31.7 °F 35.6 °F 100% 29.52 in 7.0 mi ESE 4.6 mph - 0.01 in   Overcast
10:54 PM 35.6 °F 30.7 °F 35.6 °F 100% 29.51 in 10.0 mi ESE 5.8 mph - 0.01 in   Overcast
11:14 PM 35.6 °F 30.7 °F 35.6 °F 100% 29.51 in 10.0 mi SE 5.8 mph - 0.01 in   Overcast
11:34 PM 37.4 °F 30.8 °F 35.6 °F 93% 29.51 in 7.0 mi SSE 9.2 mph - 0.02 in   Overcast
11:54 PM 37.4 °F 30.8 °F 37.4 °F 100% 29.52 in 10.0 mi South 9.2 mph - 0.04 in   Overcast